Regional Weather Roundup
Issued by NWS

Home | Current Version | Previous Version | Graphics & Text | Print | Product List | Glossary On
Versions: 1 2 3 4 5 6 7 8 9 10 11 12 13 14 15 16 17 18 19 20 21 22 23 24 25 26 27 28 29 30 31 32 33 34 35 36 37 38 39 40 41 42 43 44 45 46 47 48 49 50
000
ASUS44 KMEG 240110
RWRTN
TENNESSEE HOURLY STATE WEATHER ROUNDUP
NATIONAL WEATHER SERVICE MEMPHIS TN
800 PM CDT FRI JUN 23 2017

TNZ002-004-019-021-049-052-054-088>092-240200-
WEST TENNESSEE

CITY           SKY/WX    TMP DP  RH WIND       PRES   REMARKS
MEMPHIS INTL   LGT RAIN  74  72  93 E10       29.83F
NWS MEMPHIS      N/A     72 N/A N/A MISG        N/A
JACKSON        CLOUDY    75  70  84 W9        29.86R
SOMERVILLE     CLOUDY    72  68  88 NW5       29.85F
COVINGTON      MOCLDY    72  70  94 SE7       29.80F
UNION CITY     MOCLDY    77  73  88 SW7       29.82R
BOLIVAR        MOCLDY    77  68  73 VRB7G22   29.86R
PARIS          CLOUDY    75  72  88 NE5       29.84R
HUNTINGDON     MOCLDY    81  77  89 VRB6      29.83R
LEXINGTON      MOCLDY    81  77  89 CALM      29.85R
SELMER         CLEAR     79  75  89 CALM      29.85R
$$

TNZ008-025-027-028-033-062-065-066-240200-
NORTH MIDDLE TENNESSEE

CITY           SKY/WX    TMP DP  RH WIND       PRES   REMARKS
NASHVILLE      MOCLDY    79  74  84 SW7       29.82R
PORTLAND       MOCLDY    77  73  88 W5        29.82R
CLARKSVILLE    PTCLDY    79  73  82 W8        29.81R
SMYRNA         PTCLDY    78  74  87 SW6       29.83R
COOKEVILLE     MOCLDY    75  73  94 CALM      29.84R
GALLATIN       CLOUDY    79  73  83 NW5       29.85R
CROSSVILLE     CLOUDY    71  69  93 W10G17    29.89R
$$

TNZ061-075-076-078-094-096-097-240200-
SOUTH MIDDLE TENNESSEE

CITY           SKY/WX    TMP DP  RH WIND       PRES   REMARKS
FAYETTEVILLE   CLOUDY    73  73 100 SW7       29.90R FOG
TULLAHOMA      CLOUDY    73  72  94 SW8       29.91R
WINCHESTER     CLOUDY    73  73 100 VRB7        N/A
MCMINNVILLE    PTCLDY    75  75 100 SW8       29.87R
COLUMBIA       MOCLDY    77  75  94 SW9       29.84R
SHELBYVILLE    CLOUDY    75  73  94 SW7       29.87R
$$

TNZ017-018-042-046-047-240200-
NORTHEAST TENNESSEE

CITY           SKY/WX    TMP DP  RH WIND       PRES   REMARKS
TRI CITIES     CLOUDY    83  63  50 S14G25    29.76F
ELIZABETHTON   CLOUDY    84  63  48 VRB6G15   29.79S
$$

TNZ012-013-036-069-073-074-240200-
CENTRAL EAST TENNESSEE

CITY           SKY/WX    TMP DP  RH WIND       PRES   REMARKS
KNOXVILLE      LGT RAIN  73  71  93 SW24G36   29.83R FOG
OAK RIDGE      LGT RAIN  74  71  91 VRB6G18   29.85R FOG
DOWNTOWN KNOXV CLOUDY    75  73  94 SW10G21   29.81R FOG
GATLINBURG     MOCLDY    77  68  73 SW13      29.81R
MORRISTOWN     CLOUDY    79  70  73 W20G30    29.80R
JACKSBORO      MOCLDY    73  70  88 VRB6G21   29.85R FOG
$$

TNZ083-085-099-240200-
SOUTHEAST TENNESSEE

CITY           SKY/WX    TMP DP  RH WIND       PRES   REMARKS
CHATTANOOGA    MOCLDY    75  72  90 SW8       29.89R
$$

SKY/WX REPORTED AS FAIR MEANS FEW OR NO CLOUDS BELOW
12 THOUSAND FEET.




USA.gov is the U.S. government's official web portal to all federal, state and local government web resources and services.